,,Stat6,,Stat2,,Stat8,,Stat9,,Stat10,,Wind1,,Wind1,
time,status,PA1M_AVG,status,PR1M_SUM,status,RH1M_AVG,status,SR1M_AVG,status,TA1M_AVG,status,W1dAve1m,status,W1sAve1m,
2005-12-18, 00:00:00,VALID,917.439,VALID,0,VALID,99.8731,VALID,-0.0169808,VALID,20.1573,VALID,336,VALID,1.13058,
2005-12-18, 00:01:00,VALID,917.415,VALID,0,VALID,99.8515,VALID,-0.0169808,VALID,20.1543,VALID,344,VALID,0.862995,
2005-12-18, 00:02:00,VALID,917.414,VALID,0,VALID,99.8884,VALID,-0.0509425,VALID,20.1605,VALID,349,VALID,0.833147,
2005-12-18, 00:03:00,VALID,917.402,VALID,0,VALID,99.8477,VALID,-0.0169808,VALID,20.1672,VALID,343,VALID,1.24647,
2005-12-18, 00:04:00,VALID,917.401,VALID,0,VALID,99.8451,VALID,0.0509425,VALID,20.1533,VALID,344,VALID,1.15941,
2005-12-18, 00:05:00,VALID,917.401,VALID,0,VALID,99.8667,VALID,0.0849042,VALID,20.1498,VALID,334,VALID,0.675781,
2005-12-18, 00:06:00,VALID,917.411,VALID,0,VALID,99.9329,VALID,0.0509425,VALID,20.1468,VALID,337,VALID,0.326308,
2005-12-18, 00:07:00,VALID,917.409,VALID,0,VALID,99.9832,VALID,0.0849042,VALID,20.1366,VALID,329,VALID,0.204459,
2005-12-18, 00:08:00,VALID,917.413,VALID,0,VALID,100,VALID,0.0849042,VALID,20.1433,VALID,340,VALID,0.257457,
2005-12-18, 00:09:00,VALID,917.406,VALID,0,VALID,100,VALID,0.0679233,VALID,20.156,VALID,354,VALID,0.796689,
2005-12-18, 00:10:00,VALID,917.403,VALID,0,VALID,99.983,VALID,0.0679233,VALID,20.1493,VALID,8,VALID,0.832403,
2005-12-18, 00:11:00,VALID,917.405,VALID,0,VALID,99.9087,VALID,0.0679233,VALID,20.1592,VALID,15,VALID,0.534549,
2005-12-18, 00:12:00,VALID,917.383,VALID,0,VALID,99.8833,VALID,0.0679233,VALID,20.1657,VALID,20,VALID,0.852108,
2005-12-18, 00:13:00,VALID,917.394,VALID,0,VALID,99.807,VALID,0.0679233,VALID,20.162,VALID,2,VALID,0.691497,
2005-12-18, 00:14:00,VALID,917.411,VALID,0,VALID,99.7587,VALID,0.0509425,VALID,20.1791,VALID,356,VALID,0.0917969,
2005-12-18, 00:15:00,VALID,917.406,VALID,0,VALID,99.7726,VALID,0.0679233,VALID,20.1627,VALID,356,VALID,0.0691964,
2005-12-18, 00:16:00,VALID,917.402,VALID,0,VALID,99.7383,VALID,0.0339617,VALID,20.1722,VALID,356,VALID,0.546528,
2005-12-18, 00:17:00,VALID,917.381,VALID,0,VALID,99.6188,VALID,0.0849042,VALID,20.159,VALID,353,VALID,0.517624,
2005-12-18, 00:18:00,VALID,917.384,VALID,0,VALID,99.545,VALID,0.0509425,VALID,20.1493,VALID,350,VALID,0.181504,
2005-12-18, 00:19:00,VALID,917.376,VALID,0,VALID,99.5743,VALID,0.0509425,VALID,20.149,VALID,350,VALID,0.320694,
2005-12-18, 00:20:00,VALID,917.364,VALID,0,VALID,99.5794,VALID,0.0509425,VALID,20.1754,VALID,350,VALID,0.37128,
2005-12-18, 00:21:00,VALID,917.337,VALID,0,VALID,99.5387,VALID,0.0849042,VALID,20.1662,VALID,356,VALID,0.579799,
2005-12-18, 00:22:00,VALID,917.324,VALID,0,VALID,99.5387,VALID,0.101885,VALID,20.1555,VALID,18,VALID,0.856027,
2005-12-18, 00:23:00,VALID,917.345,VALID,0,VALID,99.5221,VALID,0.0849042,VALID,20.1488,VALID,8,VALID,0.521129,
2005-12-18, 00:24:00,VALID,917.362,VALID,0,VALID,99.4624,VALID,0.0679233,VALID,20.1433,VALID,349,VALID,0.457031,
2005-12-18, 00:25:00,VALID,917.323,VALID,0,VALID,99.5043,VALID,0.0849042,VALID,20.1369,VALID,348,VALID,0.0295351,
2005-12-18, 00:26:00,VALID,917.304,VALID,0,VALID,99.5259,VALID,0.0339617,VALID,20.1369,VALID,348,VALID,0,
2005-12-18, 00:27:00,VALID,917.292,VALID,0,VALID,99.5628,VALID,0.0679233,VALID,20.1498,VALID,344,VALID,0.260099,
2005-12-18, 00:28:00,VALID,917.274,VALID,0,VALID,99.5781,VALID,0.0679233,VALID,20.153,VALID,341,VALID,0.0294744,
2005-12-18, 00:29:00,VALID,917.281,VALID,0,VALID,99.5209,VALID,0.0339617,VALID,20.1428,VALID,341,VALID,0.0238281,
2005-12-18, 00:30:00,VALID,917.289,VALID,0,VALID,99.414,VALID,0.0169808,VALID,20.1267,VALID,341,VALID,0,
2005-12-18, 00:31:00,VALID,917.275,VALID,0,VALID,99.4217,VALID,0.0679233,VALID,20.1274,VALID,341,VALID,0,
2005-12-18, 00:32:00,VALID,917.243,VALID,0,VALID,99.4611,VALID,0.0169808,VALID,20.1237,VALID,341,VALID,0,
2005-12-18, 00:33:00,VALID,917.218,VALID,0,VALID,99.4764,VALID,0.0339617,VALID,20.1364,VALID,341,VALID,0,
2005-12-18, 00:34:00,VALID,917.189,VALID,0,VALID,99.4903,VALID,-0.0509425,VALID,20.1284,VALID,341,VALID,0,
2005-12-18, 00:35:00,VALID,917.179,VALID,0,VALID,99.5298,VALID,-0.0509425,VALID,20.1319,VALID,341,VALID,0,
2005-12-18, 00:36:00,VALID,917.155,VALID,0,VALID,99.6111,VALID,-0.0339617,VALID,20.1416,VALID,341,VALID,0.00381098,
2005-12-18, 00:37:00,VALID,917.158,VALID,0,VALID,99.601,VALID,-0.0849042,VALID,20.1349,VALID,341,VALID,0.000887784,
2005-12-18, 00:38:00,VALID,917.157,VALID,0,VALID,99.5743,VALID,-0.0679233,VALID,20.122,VALID,341,VALID,0,
2005-12-18, 00:39:00,VALID,917.163,VALID,0,VALID,99.615,VALID,-0.0849042,VALID,20.1222,VALID,341,VALID,0,
2005-12-18, 00:40:00,VALID,917.142,VALID,0,VALID,99.6518,VALID,-0.0679233,VALID,20.116,VALID,341,VALID,0,
2005-12-18, 00:41:00,VALID,917.163,VALID,0,VALID,99.6607,VALID,-0.101885,VALID,20.1093,VALID,341,VALID,0,
2005-12-18, 00:42:00,VALID,917.157,VALID,0,VALID,99.6353,VALID,-0.0509425,VALID,20.1101,VALID,336,VALID,0.160156,
2005-12-18, 00:43:00,VALID,917.155,VALID,0,VALID,99.6938,VALID,-0.0339617,VALID,20.1093,VALID,332,VALID,0.00186012,
2005-12-18, 00:44:00,VALID,917.143,VALID,0,VALID,99.7383,VALID,-0.0849042,VALID,20.1033,VALID,332,VALID,0,
2005-12-18, 00:45:00,VALID,917.126,VALID,0,VALID,99.821,VALID,-0.0849042,VALID,20.0993,VALID,332,VALID,0.00109012,
2005-12-18, 00:46:00,VALID,917.125,VALID,0,VALID,99.7828,VALID,-0.0339617,VALID,20.0964,VALID,333,VALID,0.154154,
2005-12-18, 00:47:00,VALID,917.109,VALID,0,VALID,99.7637,VALID,-0.0339617,VALID,20.0901,VALID,339,VALID,0.472098,
2005-12-18, 00:48:00,VALID,917.1,VALID,0,VALID,99.8515,VALID,-0.0509425,VALID,20.074,VALID,355,VALID,0.693266,
2005-12-18, 00:49:00,VALID,917.075,VALID,0,VALID,99.8527,VALID,0,VALID,20.0598,VALID,358,VALID,0.594122,
2005-12-18, 00:50:00,VALID,917.064,VALID,0,VALID,99.8578,VALID,0,VALID,20.0337,VALID,358,VALID,0.525254,
2005-12-18, 00:51:00,VALID,917.036,VALID,0,VALID,99.8413,VALID,0.0339617,VALID,19.9981,VALID,352,VALID,0.630335,
2005-12-18, 00:52:00,VALID,917.031,VALID,0,VALID,99.8833,VALID,0.0169808,VALID,19.979,VALID,341,VALID,0.370139,
2005-12-18, 00:53:00,VALID,917.023,VALID,0,VALID,99.8655,VALID,0,VALID,19.9429,VALID,331,VALID,0.695676,
2005-12-18, 00:54:00,VALID,917.031,VALID,0,VALID,99.9074,VALID,0.0169808,VALID,19.9496,VALID,330,VALID,0.212713,
2005-12-18, 00:55:00,VALID,917.011,VALID,0,VALID,99.957,VALID,0.0169808,VALID,19.9494,VALID,330,VALID,0.00761719,
2005-12-18, 00:56:00,VALID,917.003,VALID,0,VALID,99.9858,VALID,0,VALID,19.9563,VALID,333,VALID,0.192522,
2005-12-18, 00:57:00,VALID,916.991,VALID,0,VALID,99.987,VALID,0,VALID,19.9693,VALID,334,VALID,0.00190549,
2005-12-18, 00:58:00,VALID,916.98,VALID,0,VALID,99.9735,VALID,0.0339617,VALID,19.9787,VALID,334,VALID,0,
2005-12-18, 00:59:00,VALID,916.954,VALID,0,VALID,99.9748,VALID,0,VALID,19.9725,VALID,334,VALID,0,
2005-12-18, 01:00:00,VALID,916.947,VALID,0,VALID,99.9568,VALID,0,VALID,19.9658,VALID,334,VALID,0,
2005-12-18, 01:01:00,VALID,916.948,VALID,0,VALID,99.8909,VALID,0.0169808,VALID,19.9658,VALID,334,VALID,0,
2005-12-18, 01:02:00,VALID,916.974,VALID,0,VALID,99.8477,VALID,0,VALID,19.9563,VALID,334,VALID,0,
2005-12-18, 01:03:00,VALID,916.979,VALID,0,VALID,99.8769,VALID,0.0339617,VALID,19.9491,VALID,334,VALID,0,
2005-12-18, 01:04:00,VALID,916.972,VALID,0,VALID,99.9494,VALID,-0.0509425,VALID,19.9638,VALID,334,VALID,0,
2005-12-18, 01:05:00,VALID,916.971,VALID,0,VALID,99.9896,VALID,-0.101885,VALID,19.9678,VALID,334,VALID,0,
2005-12-18, 01:06:00,VALID,916.975,VALID,0,VALID,99.9954,VALID,-0.0679233,VALID,19.9872,VALID,334,VALID,0,
2005-12-18, 01:07:00,VALID,916.968,VALID,0,VALID,99.9697,VALID,-0.0849042,VALID,19.9737,VALID,334,VALID,0,
2005-12-18, 01:08:00,VALID,916.965,VALID,0,VALID,99.9685,VALID,-0.0509425,VALID,19.98,VALID,334,VALID,0,
2005-12-18, 01:09:00,VALID,916.973,VALID,0,VALID,99.9685,VALID,-0.101885,VALID,19.9802,VALID,334,VALID,0,
2005-12-18, 01:10:00,VALID,916.954,VALID,0,VALID,99.9812,VALID,-0.0679233,VALID,19.9904,VALID,334,VALID,0,
2005-12-18, 01:11:00,VALID,916.934,VALID,0,VALID,99.9507,VALID,-0.0849042,VALID,19.984,VALID,345,VALID,0.365473,
2005-12-18, 01:12:00,VALID,916.924,VALID,0,VALID,99.9893,VALID,-0.0679233,VALID,19.9907,VALID,12,VALID,0.667614,
2005-12-18, 01:13:00,VALID,916.901,VALID,0,VALID,100,VALID,-0.0849042,VALID,19.9737,VALID,16,VALID,0.742788,
2005-12-18, 01:14:00,VALID,916.876,VALID,0,VALID,100,VALID,-0.0849042,VALID,19.9675,VALID,19,VALID,0.615371,
2005-12-18, 01:15:00,VALID,916.866,VALID,0,VALID,100,VALID,-0.101885,VALID,19.9641,VALID,20,VALID,0.624809,
2005-12-18, 01:16:00,VALID,916.854,VALID,0,VALID,100,VALID,-0.0679233,VALID,19.9573,VALID,20,VALID,0.189648,
2005-12-18, 01:17:00,VALID,916.838,VALID,0,VALID,100,VALID,-0.0849042,VALID,19.9576,VALID,20,VALID,0,
2005-12-18, 01:18:00,VALID,916.826,VALID,0,VALID,100,VALID,-0.101885,VALID,19.9484,VALID,20,VALID,0,
2005-12-18, 01:19:00,VALID,916.819,VALID,0,VALID,100,VALID,0,VALID,19.9471,VALID,20,VALID,0,
2005-12-18, 01:20:00,VALID,916.823,VALID,0,VALID,100,VALID,0,VALID,19.9367,VALID,20,VALID,0,
2005-12-18, 01:21:00,VALID,916.819,VALID,0,VALID,100,VALID,0.0169808,VALID,19.9566,VALID,20,VALID,0,
2005-12-18, 01:22:00,VALID,916.8,VALID,0,VALID,100,VALID,0,VALID,19.9474,VALID,20,VALID,0.256696,
2005-12-18, 01:23:00,VALID,916.768,VALID,0,VALID,100,VALID,0,VALID,19.9372,VALID,20,VALID,0.40298,
2005-12-18, 01:24:00,VALID,916.731,VALID,0,VALID,100,VALID,0,VALID,19.9379,VALID,16,VALID,0.429315,
2005-12-18, 01:25:00,VALID,916.692,VALID,0,VALID,100,VALID,0.0169808,VALID,19.9208,VALID,352,VALID,0.670422,
2005-12-18, 01:26:00,VALID,916.698,VALID,0,VALID,100,VALID,0,VALID,19.9111,VALID,15,VALID,0.0191761,
2005-12-18, 01:27:00,VALID,916.688,VALID,0,VALID,100,VALID,0.0339617,VALID,19.9011,VALID,345,VALID,0.231898,
2005-12-18, 01:28:00,VALID,916.654,VALID,0,VALID,100,VALID,0.0339617,VALID,19.9014,VALID,300,VALID,0.0195313,
2005-12-18, 01:29:00,VALID,916.614,VALID,0,VALID,100,VALID,0.0339617,VALID,19.8947,VALID,334,VALID,0.383903,
2005-12-18, 01:30:00,VALID,916.578,VALID,0,VALID,100,VALID,0,VALID,19.921,VALID,3,VALID,0.56851,
2005-12-18, 01:31:00,VALID,916.548,VALID,0,VALID,100,VALID,0.0509425,VALID,19.8947,VALID,359,VALID,0.626272,
2005-12-18, 01:32:00,VALID,916.519,VALID,0,VALID,100,VALID,0.0169808,VALID,19.8753,VALID,338,VALID,0.676235,
2005-12-18, 01:33:00,VALID,916.502,VALID,0,VALID,100,VALID,-0.0169808,VALID,19.8626,VALID,7,VALID,0.893043,
2005-12-18, 01:34:00,VALID,916.502,VALID,0,VALID,100,VALID,-0.0679233,VALID,19.8608,VALID,8,VALID,0.018532,
2005-12-18, 01:35:00,VALID,916.489,VALID,0,VALID,100,VALID,-0.101885,VALID,19.8541,VALID,8,VALID,0,
2005-12-18, 01:36:00,VALID,916.452,VALID,0,VALID,100,VALID,-0.0849042,VALID,19.8638,VALID,8,VALID,0.148242,
2005-12-18, 01:37:00,VALID,916.395,VALID,0,VALID,100,VALID,-0.0849042,VALID,19.8676,VALID,19,VALID,0.620617,
2005-12-18, 01:38:00,VALID,916.319,VALID,0,VALID,100,VALID,-0.0849042,VALID,19.8539,VALID,26,VALID,0.409896,
2005-12-18, 01:39:00,VALID,916.268,VALID,0,VALID,100,VALID,-0.0339617,VALID,19.8641,VALID,21,VALID,0.623757,
2005-12-18, 01:40:00,VALID,916.253,VALID,0,VALID,99.9901,VALID,-0.0679233,VALID,19.8377,VALID,353,VALID,1.08194,
2005-12-18, 01:41:00,VALID,916.274,VALID,0,VALID,99.8032,VALID,-0.0339617,VALID,19.8121,VALID,345,VALID,1.10193,
2005-12-18, 01:42:00,VALID,916.282,VALID,0,VALID,99.5679,VALID,-0.101885,VALID,19.8091,VALID,343,VALID,0.712391,
2005-12-18, 01:43:00,VALID,916.266,VALID,0,VALID,99.3352,VALID,-0.0679233,VALID,19.8186,VALID,346,VALID,1.19643,
2005-12-18, 01:44:00,VALID,916.236,VALID,0,VALID,99.1,VALID,-0.0169808,VALID,19.8414,VALID,342,VALID,1.367,
2005-12-18, 01:45:00,VALID,916.223,VALID,0,VALID,98.8469,VALID,-0.101885,VALID,19.8738,VALID,8,VALID,0.90067,
2005-12-18, 01:46:00,VALID,916.217,VALID,0,VALID,98.7604,VALID,-0.101885,VALID,19.88,VALID,5,VALID,0.615189,
2005-12-18, 01:47:00,VALID,916.206,VALID,0,VALID,98.7223,VALID,-0.0849042,VALID,19.8668,VALID,14,VALID,0.740916,
2005-12-18, 01:48:00,VALID,916.186,VALID,0,VALID,98.8075,VALID,-0.0849042,VALID,19.8797,VALID,21,VALID,0.426389,
2005-12-18, 01:49:00,VALID,916.158,VALID,0,VALID,98.8978,VALID,0,VALID,19.8884,VALID,11,VALID,0.702943,
2005-12-18, 01:50:00,VALID,916.143,VALID,0,VALID,98.9957,VALID,0,VALID,19.875,VALID,15,VALID,0.499219,
2005-12-18, 01:51:00,VALID,916.121,VALID,0,VALID,98.997,VALID,0.0169808,VALID,19.872,VALID,338,VALID,0.65282,
2005-12-18, 01:52:00,VALID,916.102,VALID,0,VALID,98.8851,VALID,0,VALID,19.8693,VALID,343,VALID,0.333079,
2005-12-18, 01:53:00,VALID,916.08,VALID,0,VALID,98.7871,VALID,0.0339617,VALID,19.8593,VALID,341,VALID,0.974144,
2005-12-18, 01:54:00,VALID,916.035,VALID,0,VALID,98.6206,VALID,0,VALID,19.8623,VALID,342,VALID,1.27083,
2005-12-18, 01:55:00,VALID,916.013,VALID,0,VALID,98.3434,VALID,0,VALID,19.8855,VALID,338,VALID,0.852896,
2005-12-18, 01:56:00,VALID,915.99,VALID,0,VALID,98.2073,VALID,0,VALID,19.8952,VALID,344,VALID,1.04762,
2005-12-18, 01:57:00,VALID,915.95,VALID,0,VALID,98.1094,VALID,0,VALID,19.885,VALID,346,VALID,0.771341,
2005-12-18, 01:58:00,VALID,915.896,VALID,0,VALID,98.0763,VALID,0,VALID,19.8889,VALID,353,VALID,0.612909,
2005-12-18, 01:59:00,VALID,915.855,VALID,0,VALID,98.0572,VALID,0,VALID,19.8892,VALID,351,VALID,0.768403,
2005-12-18, 02:00:00,VALID,915.842,VALID,0,VALID,98.0293,VALID,-0.0169808,VALID,19.8566,VALID,351,VALID,0.665737,
2005-12-18, 02:01:00,VALID,915.85,VALID,0,VALID,98.0865,VALID,0,VALID,19.8367,VALID,346,VALID,0.755952,
2005-12-18, 02:02:00,VALID,915.863,VALID,0,VALID,98.159,VALID,0,VALID,19.8268,VALID,339,VALID,0.70332,
2005-12-18, 02:03:00,VALID,915.855,VALID,0,VALID,98.1501,VALID,0.0169808,VALID,19.837,VALID,324,VALID,0.527435,
2005-12-18, 02:04:00,VALID,915.85,VALID,0,VALID,98.0305,VALID,0.0169808,VALID,19.8402,VALID,352,VALID,0.679878,
2005-12-18, 02:05:00,VALID,915.834,VALID,0,VALID,97.9886,VALID,0.0509425,VALID,19.8138,VALID,346,VALID,0.546165,
2005-12-18, 02:06:00,VALID,915.792,VALID,0,VALID,97.986,VALID,0,VALID,19.7977,VALID,344,VALID,1.09193,
2005-12-18, 02:07:00,VALID,915.765,VALID,0,VALID,97.9631,VALID,0,VALID,19.8086,VALID,339,VALID,0.847842,
2005-12-18, 02:08:00,VALID,915.755,VALID,0,VALID,97.9174,VALID,0,VALID,19.7857,VALID,342,VALID,0.569586,
2005-12-18, 02:09:00,VALID,915.757,VALID,0,VALID,98.0026,VALID,0,VALID,19.7626,VALID,325,VALID,1.02763,
2005-12-18, 02:10:00,VALID,915.741,VALID,0,VALID,97.9975,VALID,0,VALID,19.7656,VALID,341,VALID,0.427455,
2005-12-18, 02:11:00,VALID,915.722,VALID,0,VALID,98.0255,VALID,0.0169808,VALID,19.7634,VALID,341,VALID,0.280878,
2005-12-18, 02:12:00,VALID,915.693,VALID,0,VALID,98.1056,VALID,0.0169808,VALID,19.7497,VALID,330,VALID,0.369922,
2005-12-18, 02:13:00,VALID,915.657,VALID,0,VALID,98.1539,VALID,0,VALID,19.7365,VALID,4,VALID,0.224609,
2005-12-18, 02:14:00,VALID,915.647,VALID,0,VALID,98.117,VALID,0.0169808,VALID,19.7305,VALID,9,VALID,0.046503,
2005-12-18, 02:15:00,VALID,915.653,VALID,0,VALID,98.1577,VALID,0.0169808,VALID,19.6947,VALID,9,VALID,0.0398638,
2005-12-18, 02:16:00,VALID,915.649,VALID,0,VALID,98.3624,VALID,0,VALID,19.6888,VALID,9,VALID,0.10883,
2005-12-18, 02:17:00,VALID,915.653,VALID,0,VALID,98.5583,VALID,0,VALID,19.6823,VALID,9,VALID,0.103041,
2005-12-18, 02:18:00,VALID,915.645,VALID,0,VALID,98.5087,VALID,0,VALID,19.6432,VALID,9,VALID,0.00351562,
2005-12-18, 02:19:00,VALID,915.619,VALID,0,VALID,98.5633,VALID,0.0169808,VALID,19.6012,VALID,5,VALID,0.209335,
2005-12-18, 02:20:00,VALID,915.606,VALID,0,VALID,98.7681,VALID,-0.0169808,VALID,19.5982,VALID,1,VALID,0.407774,
2005-12-18, 02:21:00,VALID,915.58,VALID,0,VALID,98.8215,VALID,-0.0169808,VALID,19.5878,VALID,1,VALID,0,
2005-12-18, 02:22:00,VALID,915.563,VALID,0,VALID,98.8863,VALID,-0.0169808,VALID,19.5821,VALID,1,VALID,0,
2005-12-18, 02:23:00,VALID,915.557,VALID,0,VALID,98.9321,VALID,0,VALID,19.5823,VALID,1,VALID,0,
2005-12-18, 02:24:00,VALID,915.552,VALID,0,VALID,99.0275,VALID,-0.0509425,VALID,19.5724,VALID,1,VALID,0,
2005-12-18, 02:25:00,VALID,915.523,VALID,0,VALID,99.1318,VALID,-0.0339617,VALID,19.5691,VALID,1,VALID,0,
2005-12-18, 02:26:00,VALID,915.514,VALID,0,VALID,99.2525,VALID,0.0169808,VALID,19.556,VALID,357,VALID,0.00111607,
2005-12-18, 02:27:00,VALID,915.511,VALID,0,VALID,99.3123,VALID,-0.0169808,VALID,19.5565,VALID,353,VALID,0.0998047,
2005-12-18, 02:28:00,VALID,915.525,VALID,0,VALID,99.2017,VALID,0,VALID,19.5532,VALID,345,VALID,0.176669,
2005-12-18, 02:29:00,VALID,915.527,VALID,0,VALID,99.2373,VALID,-0.0169808,VALID,19.5632,VALID,300,VALID,0.215021,
2005-12-18, 02:30:00,VALID,915.536,VALID,0,VALID,99.2907,VALID,0,VALID,19.5532,VALID,300,VALID,0.144804,
2005-12-18, 02:31:00,VALID,915.52,VALID,0,VALID,99.3161,VALID,0,VALID,19.5535,VALID,300,VALID,0.163876,
2005-12-18, 02:32:00,VALID,915.512,VALID,0,VALID,99.414,VALID,0,VALID,19.5209,VALID,300,VALID,0.304129,
2005-12-18, 02:33:00,VALID,915.491,VALID,0,VALID,99.5437,VALID,0,VALID,19.5147,VALID,300,VALID,0.1875,
2005-12-18, 02:34:00,VALID,915.473,VALID,0,VALID,99.6556,VALID,-0.0169808,VALID,19.496,VALID,327,VALID,0.48316,
2005-12-18, 02:35:00,VALID,915.456,VALID,0,VALID,99.704,VALID,0,VALID,19.4697,VALID,351,VALID,0.457849,
2005-12-18, 02:36:00,VALID,915.455,VALID,0,VALID,99.8006,VALID,-0.0169808,VALID,19.4403,VALID,335,VALID,0.692454,
2005-12-18, 02:37:00,VALID,915.465,VALID,0,VALID,99.8515,VALID,-0.0679233,VALID,19.4209,VALID,334,VALID,0.490885,
2005-12-18, 02:38:00,VALID,915.468,VALID,0,VALID,99.8947,VALID,-0.0509425,VALID,19.4276,VALID,334,VALID,0.139717,
2005-12-18, 02:39:00,VALID,915.447,VALID,0,VALID,99.943,VALID,0,VALID,19.4085,VALID,334,VALID,0.166903,
2005-12-18, 02:40:00,VALID,915.422,VALID,0,VALID,99.9941,VALID,0,VALID,19.3824,VALID,334,VALID,0.0190549,
2005-12-18, 02:41:00,VALID,915.409,VALID,0,VALID,100,VALID,-0.0509425,VALID,19.3889,VALID,334,VALID,0,
2005-12-18, 02:42:00,VALID,915.426,VALID,0,VALID,100,VALID,0,VALID,19.3821,VALID,334,VALID,0,
2005-12-18, 02:43:00,VALID,915.424,VALID,0,VALID,100,VALID,-0.0339617,VALID,19.3692,VALID,334,VALID,0,
2005-12-18, 02:44:00,VALID,915.423,VALID,0,VALID,100,VALID,0,VALID,19.3568,VALID,334,VALID,0,
2005-12-18, 02:45:00,VALID,915.428,VALID,0,VALID,100,VALID,0,VALID,19.3568,VALID,334,VALID,0,
2005-12-18, 02:46:00,VALID,915.428,VALID,0,VALID,100,VALID,-0.0169808,VALID,19.3404,VALID,334,VALID,0,
2005-12-18, 02:47:00,VALID,915.404,VALID,0,VALID,100,VALID,-0.0169808,VALID,19.3016,VALID,334,VALID,0,
2005-12-18, 02:48:00,VALID,915.376,VALID,0,VALID,100,VALID,-0.0339617,VALID,19.2854,VALID,334,VALID,0,
2005-12-18, 02:49:00,VALID,915.359,VALID,0,VALID,100,VALID,-0.0169808,VALID,19.2598,VALID,334,VALID,0,
2005-12-18, 02:50:00,VALID,915.35,VALID,0,VALID,100,VALID,-0.0169808,VALID,19.2404,VALID,334,VALID,0,
2005-12-18, 02:51:00,VALID,915.324,VALID,0,VALID,100,VALID,-0.0339617,VALID,19.2402,VALID,334,VALID,0,
2005-12-18, 02:52:00,VALID,915.317,VALID,0,VALID,100,VALID,0,VALID,19.2434,VALID,334,VALID,0,
2005-12-18, 02:53:00,VALID,915.323,VALID,0,VALID,100,VALID,-0.0169808,VALID,19.2342,VALID,334,VALID,0,
2005-12-18, 02:54:00,VALID,915.343,VALID,0,VALID,100,VALID,-0.0169808,VALID,19.2215,VALID,334,VALID,0,
2005-12-18, 02:55:00,VALID,915.357,VALID,0,VALID,100,VALID,-0.0849042,VALID,19.2118,VALID,334,VALID,0,
2005-12-18, 02:56:00,VALID,915.367,VALID,0,VALID,100,VALID,-0.0339617,VALID,19.2178,VALID,334,VALID,0,
2005-12-18, 02:57:00,VALID,915.343,VALID,0,VALID,100,VALID,-0.0169808,VALID,19.2309,VALID,334,VALID,0,
2005-12-18, 02:58:00,VALID,915.324,VALID,0,VALID,100,VALID,-0.0169808,VALID,19.2372,VALID,334,VALID,0,
2005-12-18, 02:59:00,VALID,915.308,VALID,0,VALID,100,VALID,-0.0169808,VALID,19.2247,VALID,334,VALID,0,
2005-12-18, 03:00:00,VALID,915.295,VALID,0,VALID,100,VALID,0,VALID,19.224,VALID,334,VALID,0,
2005-12-18, 03:01:00,VALID,915.28,VALID,0,VALID,100,VALID,-0.0169808,VALID,19.2496,VALID,334,VALID,0,
2005-12-18, 03:02:00,VALID,915.273,VALID,0,VALID,100,VALID,-0.0169808,VALID,19.2496,VALID,334,VALID,0,
2005-12-18, 03:03:00,VALID,915.242,VALID,0,VALID,100,VALID,0,VALID,19.2695,VALID,338,VALID,0.470052,
2005-12-18, 03:04:00,VALID,915.23,VALID,0,VALID,100,VALID,-0.0169808,VALID,19.2722,VALID,336,VALID,0.593564,
2005-12-18, 03:05:00,VALID,915.203,VALID,0,VALID,100,VALID,-0.0169808,VALID,19.312,VALID,327,VALID,0.590216,
2005-12-18, 03:06:00,VALID,915.185,VALID,0,VALID,100,VALID,-0.0339617,VALID,19.3508,VALID,344,VALID,0.368786,
2005-12-18, 03:07:00,VALID,915.179,VALID,0,VALID,100,VALID,-0.0339617,VALID,19.36,VALID,344,VALID,0.0722222,
2005-12-18, 03:08:00,VALID,915.171,VALID,0,VALID,100,VALID,0,VALID,19.3792,VALID,344,VALID,0,
2005-12-18, 03:09:00,VALID,915.162,VALID,0,VALID,100,VALID,-0.0169808,VALID,19.399,VALID,344,VALID,0,
2005-12-18, 03:10:00,VALID,915.127,VALID,0,VALID,100,VALID,-0.0169808,VALID,19.4018,VALID,344,VALID,0,
2005-12-18, 03:11:00,VALID,915.12,VALID,0,VALID,99.998,VALID,-0.0169808,VALID,19.3921,VALID,344,VALID,0,
2005-12-18, 03:12:00,VALID,915.124,VALID,0,VALID,99.9883,VALID,-0.0169808,VALID,19.4125,VALID,344,VALID,0,
2005-12-18, 03:13:00,VALID,915.109,VALID,0,VALID,99.9769,VALID,-0.0339617,VALID,19.4122,VALID,344,VALID,0,
2005-12-18, 03:14:00,VALID,915.1,VALID,0,VALID,100,VALID,-0.0339617,VALID,19.4055,VALID,344,VALID,0,
2005-12-18, 03:15:00,VALID,915.077,VALID,0,VALID,100,VALID,-0.0339617,VALID,19.4023,VALID,344,VALID,0,
2005-12-18, 03:16:00,VALID,915.064,VALID,0,VALID,100,VALID,-0.0339617,VALID,19.4058,VALID,344,VALID,0,
2005-12-18, 03:17:00,VALID,915.067,VALID,0,VALID,100,VALID,-0.0339617,VALID,19.409,VALID,342,VALID,0,
2005-12-18, 03:18:00,VALID,915.081,VALID,0,VALID,100,VALID,-0.0339617,VALID,19.3921,VALID,218,VALID,0.141959,
2005-12-18, 03:19:00,VALID,915.093,VALID,0,VALID,100,VALID,-0.0339617,VALID,19.4025,VALID,212,VALID,0.117898,
2005-12-18, 03:20:00,VALID,915.108,VALID,0,VALID,100,VALID,-0.0339617,VALID,19.3958,VALID,212,VALID,0.00053267,
2005-12-18, 03:21:00,VALID,915.136,VALID,0,VALID,100,VALID,-0.0509425,VALID,19.3859,VALID,212,VALID,0.315662,
2005-12-18, 03:22:00,VALID,915.122,VALID,0,VALID,100,VALID,-0.0679233,VALID,19.3826,VALID,212,VALID,0.185724,
2005-12-18, 03:23:00,VALID,915.125,VALID,0,VALID,100,VALID,-0.0509425,VALID,19.3901,VALID,212,VALID,0.00815217,
2005-12-18, 03:24:00,VALID,915.11,VALID,0,VALID,100,VALID,-0.0509425,VALID,19.3702,VALID,212,VALID,0,
2005-12-18, 03:25:00,VALID,915.108,VALID,0,VALID,100,VALID,-0.0339617,VALID,19.3531,VALID,212,VALID,0,
2005-12-18, 03:26:00,VALID,915.108,VALID,0,VALID,100,VALID,-0.101885,VALID,19.3535,VALID,212,VALID,0,
2005-12-18, 03:27:00,VALID,915.092,VALID,0,VALID,100,VALID,-0.0339617,VALID,19.3506,VALID,212,VALID,0,
2005-12-18, 03:28:00,VALID,915.087,VALID,0,VALID,100,VALID,-0.0169808,VALID,19.3411,VALID,212,VALID,0,
2005-12-18, 03:29:00,VALID,915.079,VALID,0,VALID,100,VALID,-0.0339617,VALID,19.3215,VALID,212,VALID,0,
2005-12-18, 03:30:00,VALID,915.06,VALID,0,VALID,100,VALID,-0.0339617,VALID,19.3051,VALID,212,VALID,0,
2005-12-18, 03:31:00,VALID,915.04,VALID,0,VALID,100,VALID,0,VALID,19.3244,VALID,293,VALID,0.351181,
2005-12-18, 03:32:00,VALID,915.015,VALID,0,VALID,100,VALID,-0.0849042,VALID,19.3277,VALID,343,VALID,0.0917039,
2005-12-18, 03:33:00,VALID,914.985,VALID,0,VALID,100,VALID,-0.0679233,VALID,19.3244,VALID,351,VALID,0.423692,
2005-12-18, 03:34:00,VALID,914.957,VALID,0,VALID,100,VALID,-0.0169808,VALID,19.314,VALID,357,VALID,0.156771,
2005-12-18, 03:35:00,VALID,914.949,VALID,0,VALID,100,VALID,0.0339617,VALID,19.2941,VALID,357,VALID,0.0691692,
2005-12-18, 03:36:00,VALID,914.953,VALID,0,VALID,100,VALID,-0.0169808,VALID,19.2884,VALID,357,VALID,0.138263,
2005-12-18, 03:37:00,VALID,914.942,VALID,0,VALID,100,VALID,0,VALID,19.2752,VALID,357,VALID,0,
2005-12-18, 03:38:00,VALID,914.931,VALID,0,VALID,100,VALID,0,VALID,19.2297,VALID,357,VALID,0,
2005-12-18, 03:39:00,VALID,914.916,VALID,0,VALID,100,VALID,0.0169808,VALID,19.217,VALID,357,VALID,0,
2005-12-18, 03:40:00,VALID,914.912,VALID,0,VALID,100,VALID,0,VALID,19.1974,VALID,357,VALID,0,
2005-12-18, 03:41:00,VALID,914.898,VALID,0,VALID,100,VALID,0.0339617,VALID,19.1845,VALID,357,VALID,0,
2005-12-18, 03:42:00,VALID,914.882,VALID,0,VALID,100,VALID,0.0339617,VALID,19.1681,VALID,357,VALID,0.0287064,